| time (UTC) | temp F | wind direction | speed knots | gust knots | rain 1hr in | rain 24hr in | rain mn in | humidity % | barometer mb |
| 20260506200055 | 87 | 0 | 1.7 | 9.6 | 0.00 | 0.01 | 0.00 | 72 | 1008.1 |
| 20260506194633 | 86 | 244 | 5.2 | 8.7 | 0.00 | 0.01 | 0.00 | 74 | 1008.2 |
| 20260506193104 | 86 | 250 | 3.5 | 9.6 | 0.00 | 0.01 | 0.00 | 75 | 1008.4 |
| 20260506191601 | 84 | 241 | 4.3 | 8.7 | 0.00 | 0.01 | 0.00 | 77 | 1008.6 |
| 20260506190109 | 83 | 277 | 3.5 | 8.7 | 0.00 | 0.01 | 0.00 | 79 | 1008.8 |
| 20260506184557 | 84 | 274 | 3.5 | 9.6 | 0.00 | 0.01 | 0.00 | 76 | 1008.9 |
| 20260506183055 | 84 | 134 | 1.7 | 7.0 | 0.00 | 0.01 | 0.00 | 74 | 1009.1 |
| 20260506181554 | 85 | 138 | 0.9 | 7.0 | 0.00 | 0.01 | 0.00 | 77 | 1009.2 |
| 20260506180105 | 83 | 170 | 0.0 | 7.8 | 0.00 | 0.01 | 0.00 | 78 | 1009.4 |
| 20260506174556 | 82 | 248 | 1.7 | 7.0 | 0.00 | 0.02 | 0.00 | 81 | 1009.6 |
| 20260506173058 | 81 | 0 | 0.9 | 4.3 | 0.00 | 0.02 | 0.00 | 82 | 1009.9 |
| 20260506171557 | 81 | 163 | 1.7 | 5.2 | 0.00 | 0.02 | 0.00 | 82 | 1010.0 |
| 20260506170105 | 81 | 247 | 1.7 | 6.1 | 0.00 | 0.02 | 0.00 | 81 | 1010.0 |
| 20260506164553 | 81 | 0 | 1.7 | 5.2 | 0.00 | 0.02 | 0.00 | 82 | 1009.9 |
| 20260506163111 | 80 | 250 | 2.6 | 5.2 | 0.00 | 0.02 | 0.00 | 83 | 1009.7 |
| 20260506161556 | 79 | 0 | 0.9 | 6.1 | 0.00 | 0.02 | 0.00 | 85 | 1009.6 |
| 20260506160055 | 79 | 244 | 0.9 | 3.5 | 0.00 | 0.02 | 0.00 | 85 | 1009.3 |
| 20260506154610 | 78 | 246 | 2.6 | 5.2 | 0.00 | 0.02 | 0.00 | 85 | 1009.3 |
| 20260506153107 | 78 | 250 | 3.5 | 7.8 | 0.00 | 0.02 | 0.00 | 85 | 1009.1 |
| 20260506151558 | 79 | 250 | 3.5 | 8.7 | 0.00 | 0.02 | 0.00 | 85 | 1008.9 |
| 20260506150053 | 79 | 264 | 2.6 | 7.0 | 0.00 | 0.02 | 0.00 | 85 | 1008.8 |
| 20260506144555 | 78 | 263 | 2.6 | 7.0 | 0.00 | 0.02 | 0.00 | 87 | 1008.6 |
| 20260506143103 | 78 | 228 | 3.5 | 8.7 | 0.00 | 0.02 | 0.00 | 87 | 1008.4 |
| 20260506141551 | 77 | 247 | 4.3 | 9.6 | 0.00 | 0.02 | 0.00 | 88 | 1008.3 |
| 20260506140057 | 77 | 248 | 2.6 | 7.8 | 0.00 | 0.02 | 0.00 | 88 | 1008.3 |
| 20260506134554 | 77 | 234 | 3.5 | 8.7 | 0.00 | 0.02 | 0.00 | 89 | 1008.2 |
| 20260506133057 | 76 | 243 | 3.5 | 9.6 | 0.00 | 0.02 | 0.00 | 89 | 1008.2 |
| 20260506131557 | 76 | 249 | 2.6 | 6.1 | 0.00 | 0.02 | 0.00 | 90 | 1008.3 |
| 20260506130053 | 75 | 231 | 2.6 | 7.0 | 0.00 | 0.02 | 0.00 | 90 | 1008.2 |
| 20260506124552 | 75 | 255 | 1.7 | 4.3 | 0.00 | 0.02 | 0.00 | 90 | 1008.3 |
| 20260506123052 | 75 | 249 | 1.7 | 6.1 | 0.00 | 0.02 | 0.00 | 90 | 1008.1 |
| 20260506121553 | 75 | 275 | 1.7 | 4.3 | 0.00 | 0.02 | 0.00 | 90 | 1008.1 |
| 20260506120059 | 75 | 0 | 0.9 | 4.3 | 0.00 | 0.02 | 0.00 | 90 | 1008.1 |
| 20260506114604 | 75 | 247 | 1.7 | 3.5 | 0.00 | 0.02 | 0.00 | 90 | 1008.0 |
| 20260506113057 | 75 | 265 | 0.0 | 3.5 | 0.00 | 0.02 | 0.00 | 90 | 1008.0 |
| 20260506111559 | 75 | 251 | 1.7 | 6.1 | 0.00 | 0.02 | 0.00 | 90 | 1007.8 |
| 20260506110103 | 75 | 245 | 2.6 | 6.1 | 0.00 | 0.02 | 0.00 | 90 | 1007.8 |
| 20260506104603 | 75 | 251 | 0.9 | 4.3 | 0.00 | 0.02 | 0.00 | 89 | 1007.9 |
| 20260506103109 | 75 | 248 | 1.7 | 5.2 | 0.00 | 0.02 | 0.00 | 89 | 1007.6 |
| 20260506101605 | 75 | 263 | 2.6 | 7.8 | 0.00 | 0.02 | 0.00 | 89 | 1007.6 |
| 20260506100057 | 75 | 265 | 3.5 | 7.0 | 0.00 | 0.02 | 0.00 | 89 | 1007.6 |
| 20260506094621 | 75 | 254 | 4.3 | 7.8 | 0.00 | 0.02 | 0.00 | 89 | 1007.5 |
| 20260506093101 | 75 | 267 | 5.2 | 9.6 | 0.00 | 0.02 | 0.00 | 88 | 1007.5 |
| 20260506091558 | 75 | 259 | 4.3 | 7.0 | 0.00 | 0.02 | 0.00 | 88 | 1007.5 |
| 20260506090055 | 75 | 268 | 3.5 | 7.0 | 0.00 | 0.02 | 0.00 | 88 | 1007.5 |
| 20260506084552 | 75 | 0 | 0.0 | 0.9 | 0.00 | 0.03 | 0.00 | 88 | 1007.6 |
| 20260506083059 | 75 | 0 | 0.0 | 3.5 | 0.00 | 0.03 | 0.00 | 88 | 1007.6 |
| 20260506081554 | 76 | 246 | 1.7 | 3.5 | 0.00 | 0.03 | 0.00 | 87 | 1007.4 |
| 20260506073053 | 76 | 261 | 3.5 | 7.0 | 0.00 | 0.03 | 0.00 | 87 | 1007.8 |
| 20260506071557 | 76 | 277 | 0.9 | 7.0 | 0.00 | 0.03 | 0.00 | 87 | 1008.1 |
| 20260506070109 | 76 | 238 | 3.5 | 7.0 | 0.00 | 0.03 | 0.00 | 86 | 1008.2 |
| 20260506061557 | 77 | 242 | 4.3 | 8.7 | 0.00 | 0.03 | 0.00 | 86 | 1008.6 |
| 20260506044553 | 77 | 242 | 4.3 | 7.0 | 0.00 | 0.03 | 0.03 | 86 | 1008.5 |
| 20260506043051 | 77 | 253 | 3.5 | 7.8 | 0.00 | 0.03 | 0.03 | 86 | 1008.4 |
| 20260506041557 | 77 | 276 | 3.5 | 8.7 | 0.00 | 0.03 | 0.03 | 86 | 1008.2 |
| 20260506034604 | 76 | 253 | 5.2 | 9.6 | 0.00 | 0.03 | 0.03 | 86 | 1007.6 |
| 20260506033055 | 76 | 256 | 5.2 | 8.7 | 0.00 | 0.03 | 0.03 | 87 | 1007.5 |
| 20260506031600 | 76 | 242 | 6.1 | 11.3 | 0.01 | 0.03 | 0.03 | 86 | 1007.3 |
| 20260506030053 | 77 | 252 | 6.1 | 10.4 | 0.01 | 0.03 | 0.03 | 85 | 1007.2 |
| 20260506024558 | 77 | 243 | 5.2 | 10.4 | 0.01 | 0.03 | 0.03 | 84 | 1007.2 |
| 20260506023058 | 78 | 265 | 4.3 | 10.4 | 0.01 | 0.03 | 0.03 | 84 | 1007.0 |
| 20260506021600 | 78 | 286 | 7.0 | 11.3 | 0.00 | 0.02 | 0.02 | 84 | 1006.8 |
| 20260506014558 | 78 | 270 | 5.2 | 8.7 | 0.00 | 0.02 | 0.02 | 83 | 1006.8 |
| 20260506013056 | 78 | 259 | 4.3 | 7.8 | 0.00 | 0.02 | 0.02 | 83 | 1006.6 |
| 20260506011608 | 78 | 277 | 6.1 | 10.4 | 0.00 | 0.02 | 0.02 | 82 | 1006.2 |
| 20260506010059 | 79 | 287 | 5.2 | 9.6 | 0.00 | 0.02 | 0.02 | 82 | 1006.0 |
| 20260506004552 | 79 | 251 | 6.1 | 12.2 | 0.00 | 0.02 | 0.02 | 82 | 1005.9 |
| 20260506003053 | 79 | 263 | 6.1 | 13.0 | 0.00 | 0.02 | 0.02 | 81 | 1005.4 |
| 20260506001554 | 80 | 257 | 7.8 | 13.9 | 0.00 | 0.02 | 0.02 | 81 | 1005.5 |
| 20260506000053 | 80 | 255 | 7.8 | 16.5 | 0.00 | 0.02 | 0.02 | 79 | 1005.4 |
| 20260505234600 | 80 | 252 | 8.7 | 15.6 | 0.00 | 0.02 | 0.02 | 79 | 1005.4 |
| 20260505233108 | 81 | 254 | 8.7 | 14.8 | 0.00 | 0.02 | 0.02 | 79 | 1005.2 |
| 20260505231600 | 81 | 260 | 9.6 | 14.8 | 0.00 | 0.02 | 0.02 | 78 | 1005.3 |
| 20260505230057 | 82 | 251 | 8.7 | 15.6 | 0.00 | 0.02 | 0.02 | 77 | 1005.2 |
| 20260505224552 | 83 | 275 | 11.3 | 16.5 | 0.00 | 0.03 | 0.02 | 74 | 1005.4 |
| 20260505223058 | 83 | 277 | 10.4 | 16.5 | 0.00 | 0.03 | 0.02 | 76 | 1005.6 |
| 20260505221555 | 83 | 247 | 10.4 | 14.8 | 0.00 | 0.03 | 0.02 | 75 | 1005.6 |
| 20260505220100 | 84 | 269 | 7.0 | 12.2 | 0.00 | 0.03 | 0.02 | 74 | 1005.8 |
| 20260505214555 | 84 | 263 | 4.3 | 12.2 | 0.00 | 0.03 | 0.02 | 75 | 1005.9 |
| 20260505213055 | 84 | 244 | 7.8 | 13.0 | 0.00 | 0.03 | 0.02 | 74 | 1006.2 |
| 20260505211609 | 85 | 273 | 7.0 | 11.3 | 0.00 | 0.03 | 0.02 | 73 | 1006.3 |
| 20260505210054 | 84 | 240 | 6.1 | 14.8 | 0.00 | 0.03 | 0.02 | 75 | 1006.5 |
| 20260505204602 | 86 | 256 | 8.7 | 12.2 | 0.00 | 0.03 | 0.02 | 72 | 1006.6 |
| 20260505203058 | 85 | 268 | 8.7 | 13.9 | 0.00 | 0.03 | 0.02 | 73 | 1006.9 |
| 20260505201602 | 84 | 253 | 7.0 | 11.3 | 0.00 | 0.03 | 0.02 | 72 | 1007.1 |